Location: Ç?ral? Körfezi
(36.3984°N, 30.4829°E)
Time: 16:45:16
(UTC+00:00)

Cosmos 1741 Rocket - Pass Details

Date: 04 August 2024
Orbit: 759 x 779 km, 74.0° (Epoch: 18 September)

Event Time Altitude Azimuth Distance (km) Brightness Sun altitude
Rises 20:03:59 0° 342° (NNW) 3,239 8.3 -29.6°
Reaches altitude 10° 20:06:22 10° 343° (NNW) 2,307 7.3 -29.9°
Enters shadow 20:10:30 57° 346° (NNW) 898 4.5 -30.3°
